Tracking 19489 objects as of 22-Jan-2019
HD Live streaming from Space Station
objects crossing your sky now

COSMOS 1491 (GLONASS)

Track COSMOS 1491 (GLONASS) now!
COSMOS 1491 (GLONASS) is classified as:


NORAD ID: 14259
Int'l Code: 1983-084B
Perigee: 18,895.5 km
Apogee: 19,009.6 km
Inclination: 64.0 °
Period: 668.4 minutes
Semi major axis: 25323 km
RCS: 2.4918 m2 (large)
Launch date: August 10, 1983
Source: Commonwealth of Independent States (former USSR) (CIS)
Launch site: TYURATAM MISSILE AND SPACE COMPLEX (TTMTR)
SV:
aabbcc
Your satellite tracking list
Your tracking list is empty




NASA's NSSDC Master Catalog

Two Line Element Set (TLE):
1 14259U 83084B   19021.63986875 +.00000025 +00000-0 +00000-0 0  9996
2 14259 063.9743 153.8683 0022535 322.0595 121.6359 02.15434861277896
Source of the keplerian elements: AFSPC